Weather History for Meacham, OR

Change the Weather History Date:

Friday, April 19, 2013

  Actual Average Record
Temperature  
Mean Temperature 42 °F -  
Max Temperature 44 °F 51 °F 66 °F (2009)
Min Temperature 39 °F 27 °F 21 °F (2003)
Degree Days  
Heating Degree Days 24    
Moisture  
Dew Point 40 °F    
Average Humidity 90    
Maximum Humidity 100    
Minimum Humidity 87    
Precipitation  
Precipitation 2.38 in - - ()
Sea Level Pressure  
Sea Level Pressure 30.08 in    
Wind  
Wind Speed 3 mph (WNW)    
Max Wind Speed 10 mph    
Max Gust Speed 24 mph    
Visibility 4 miles    
Events Rain    
Averages and records for this station are not official NWS values.
T = Trace of Precipitation, MM = Missing Value Source: NWS Daily Summary

Daily Weather History Graph

Daily Weather History Graph

Search for Another Location

Airport:

Trip Planner

Search our weather history database for the weather conditions in past years. The results will help you decide how hot, cold, wet, or windy it might be!

Date:

Astronomy

Apr. 19, 2013 Rise Set
Actual Time 6:00 AM PDT 7:45 PM PDT
Civil Twilight 5:29 AM PDT 8:17 PM PDT
Nautical Twilight 4:51 AM PDT 8:55 PM PDT
Astronomical Twilight 4:09 AM PDT 9:37 PM PDT
Moon 1:17 PM PDT 2:37 AM PDT
Length of Visible Light 14h 47m
Length of Day
13h 44m
Waxing Gibbous, 62% of the Moon is Illuminated
Apr 19
Waxing Gibbous
Apr 25
Full
May 2
Last Quarter
May 9
New
May 17
First Quarter

Hourly Weather History & Observations

Time (PDT) Temp. Windchill Dew Point Humidity Pressure Visibility Wind Dir Wind Speed Gust Speed Precip Events Conditions
12:31 AM 42.8 °F - 39.2 °F 87% 30.22 in 4.0 mi Calm Calm - 0.04 in Rain Rain
12:56 AM 42.1 °F - 39.9 °F 92% 30.25 in 5.0 mi Calm Calm - 0.08 in Rain Light Rain
4:18 AM 42.8 °F - 41.0 °F 93% 30.16 in 4.0 mi Calm Calm - 0.05 in Rain Rain
4:42 AM 42.8 °F - 41.0 °F 93% 30.15 in 6.0 mi Calm Calm - 0.09 in Rain Light Rain
4:58 AM 42.8 °F - 41.0 °F 93% 30.15 in 4.0 mi Calm Calm - 0.00 in Rain Rain
5:09 AM 42.8 °F 41.1 °F 41.0 °F 93% 30.15 in 3.0 mi Variable 3.5 mph - 0.03 in Rain Rain
5:26 AM 42.8 °F 41.1 °F 39.2 °F 87% 30.14 in 3.0 mi Variable 3.5 mph - 0.08 in Rain Rain
5:42 AM 42.8 °F 39.3 °F 39.2 °F 87% 30.14 in 4.0 mi Variable 5.8 mph - 0.13 in Rain Rain
5:56 AM 42.1 °F 37.7 °F 39.9 °F 92% 30.15 in 4.0 mi West 6.9 mph - 0.16 in Rain Rain
6:03 AM 42.8 °F 40.1 °F 39.2 °F 87% 30.13 in 4.0 mi Variable 4.6 mph - 0.01 in Rain Light Rain
6:56 AM 42.1 °F 40.2 °F 39.9 °F 92% 30.13 in 3.0 mi Variable 3.5 mph - 0.12 in Rain Rain
7:42 AM 42.8 °F - 39.2 °F 87% 30.09 in 4.0 mi Calm Calm - 0.07 in Rain Light Rain
7:56 AM 42.1 °F - 41.0 °F 96% 30.10 in 4.0 mi Calm Calm - 0.09 in Rain Light Rain
8:03 AM 42.8 °F - 41.0 °F 93% 30.09 in 4.0 mi Calm Calm - 0.01 in Rain Light Rain
8:11 AM 42.8 °F - 39.2 °F 87% 30.09 in 4.0 mi Calm Calm - 0.02 in Rain Light Rain
8:56 AM 43.0 °F - 41.0 °F 93% 30.09 in 4.0 mi Calm Calm - 0.07 in Rain Light Rain
9:14 AM 42.8 °F - 41.0 °F 93% 30.07 in 4.0 mi Calm Calm - 0.02 in Rain Light Rain
9:36 AM 42.8 °F - 41.0 °F 93% 30.07 in 3.0 mi Calm Calm - 0.05 in Rain Light Rain
9:56 AM 43.0 °F - 41.0 °F 93% 30.08 in 2.5 mi Calm Calm - 0.09 in Rain Rain
10:27 AM 44.6 °F - 41.0 °F 87% 30.06 in 2.5 mi Calm Calm - 0.06 in Rain Light Rain
10:34 AM 44.6 °F - 42.8 °F 93% 30.05 in 2.5 mi Calm Calm - 0.08 in Rain Rain
10:56 AM 44.1 °F 42.5 °F 42.1 °F 93% 30.07 in 2.5 mi Variable 3.5 mph - 0.12 in Rain Rain
11:06 AM 44.6 °F 42.2 °F 41.0 °F 87% 30.06 in 1.5 mi Variable 4.6 mph - 0.04 in Rain Rain
11:12 AM 44.6 °F 41.4 °F 41.0 °F 87% 30.06 in 1.2 mi Variable 5.8 mph - 0.07 in Rain Rain
11:56 AM 43.0 °F 39.5 °F 39.9 °F 89% 30.08 in 1.2 mi Variable 5.8 mph - 0.25 in Rain Rain
12:04 PM 42.8 °F 38.0 °F 39.2 °F 87% 30.06 in 2.0 mi WNW 8.1 mph - 0.03 in Rain Rain
12:19 PM 42.8 °F 40.1 °F 39.2 °F 87% 30.06 in 1.8 mi Variable 4.6 mph - 0.08 in Rain Rain
12:32 PM 42.8 °F 40.1 °F 39.2 °F 87% 30.06 in 1.2 mi Variable 4.6 mph - 0.15 in Rain Rain
12:51 PM 41.0 °F 36.4 °F 39.2 °F 93% 30.06 in 2.5 mi Variable 6.9 mph - 0.22 in Rain Light Rain
12:56 PM 41.0 °F 37.1 °F 39.0 °F 93% 30.09 in 3.0 mi Variable 5.8 mph - 0.23 in Rain Rain
1:26 PM 41.0 °F 38.0 °F 39.2 °F 93% 30.05 in 4.0 mi Variable 4.6 mph - 0.06 in Rain Light Rain
1:56 PM 43.0 °F - 41.0 °F 93% 30.06 in 7.0 mi Calm Calm - 0.07 in Rain Light Rain
2:17 PM 42.8 °F - 42.8 °F 100% 30.03 in 1.8 mi Calm Calm - 0.04 in Rain Rain
2:40 PM 44.6 °F 42.2 °F 41.0 °F 87% 30.02 in 3.0 mi Variable 4.6 mph - 0.11 in Rain Light Rain
2:49 PM 44.6 °F 40.7 °F 41.0 °F 87% 30.03 in 1.8 mi Variable 6.9 mph - 0.13 in Rain Rain
2:56 PM 43.0 °F 37.2 °F 39.9 °F 89% 30.06 in 1.2 mi West 10.4 mph - 0.16 in Rain Rain
3:13 PM 42.8 °F 38.0 °F 39.2 °F 87% 30.04 in 2.5 mi WNW 8.1 mph 23.0 mph 0.06 in Rain Rain
3:39 PM 42.8 °F 37.5 °F 39.2 °F 87% 30.04 in 2.5 mi WNW 9.2 mph 21.9 mph 0.13 in Rain Light Rain
3:56 PM 43.0 °F 39.5 °F 39.9 °F 89% 30.06 in 2.5 mi Variable 5.8 mph 23.0 mph 0.16 in Rain Light Rain
4:12 PM 42.8 °F 38.6 °F 39.2 °F 87% 30.03 in 1.8 mi Variable 6.9 mph - 0.04 in Rain Rain
4:40 PM 42.8 °F 38.6 °F 39.2 °F 87% 30.04 in 2.0 mi Variable 6.9 mph 18.4 mph 0.13 in Rain Rain
4:52 PM 42.8 °F 38.0 °F 41.0 °F 93% 30.03 in 3.0 mi West 8.1 mph 24.2 mph 0.16 in Rain Light Rain
4:56 PM 43.0 °F 38.8 °F 41.0 °F 93% 30.06 in 3.0 mi Variable 6.9 mph - 0.16 in Rain Light Rain
5:01 PM 42.8 °F 41.1 °F 41.0 °F 93% 30.03 in 2.5 mi Variable 3.5 mph - 0.02 in Rain Rain
5:22 PM 44.6 °F 42.2 °F 41.0 °F 87% 30.04 in 2.5 mi Variable 4.6 mph - 0.06 in Rain Light Rain
5:26 PM 44.6 °F 41.4 °F 41.0 °F 87% 30.04 in 3.0 mi Variable 5.8 mph - 0.07 in Rain Light Rain
5:41 PM 44.6 °F 42.2 °F 42.8 °F 93% 30.04 in 3.0 mi Variable 4.6 mph - 0.10 in Rain Light Rain
5:56 PM 44.1 °F 42.5 °F 41.0 °F 89% 30.06 in 4.0 mi Variable 3.5 mph - 0.13 in Rain Light Rain
6:15 PM 44.6 °F - 42.8 °F 93% 30.03 in 2.0 mi Calm Calm - 0.03 in Rain Light Rain
6:21 PM 44.6 °F 41.4 °F 42.8 °F 93% 30.03 in 3.0 mi Variable 5.8 mph - 0.04 in Rain Light Rain
6:34 PM 44.6 °F - 42.8 °F 93% 30.03 in 2.5 mi Calm Calm - 0.05 in Rain Rain
6:44 PM 44.6 °F - 42.8 °F 93% 30.03 in 3.0 mi Calm Calm - 0.08 in Rain Light Rain
6:55 PM 44.1 °F 42.5 °F 42.1 °F 93% 30.05 in 2.5 mi Variable 3.5 mph - 0.09 in Rain Rain
7:01 PM 44.6 °F 42.2 °F 42.8 °F 93% 30.03 in 1.2 mi Variable 4.6 mph - 0.03 in Rain Heavy Rain
7:13 PM 44.6 °F 40.2 °F 42.8 °F 93% 30.03 in 3.0 mi WNW 8.1 mph - 0.07 in Rain Light Rain
7:21 PM 44.6 °F 41.4 °F 41.0 °F 87% 30.04 in 10.0 mi Variable 5.8 mph - 0.07 in   Overcast
7:56 PM 43.0 °F 38.8 °F 39.9 °F 89% 30.08 in 10.0 mi Variable 6.9 mph - 0.08 in Rain Light Rain
8:06 PM 42.8 °F 39.3 °F 39.2 °F 87% 30.05 in 10.0 mi Variable 5.8 mph - 0.00 in Rain Light Rain
8:56 PM 42.1 °F 38.4 °F 39.9 °F 92% 30.09 in 4.0 mi Variable 5.8 mph - 0.06 in Rain Light Rain
9:36 PM 42.8 °F 38.0 °F 39.2 °F 87% 30.07 in 2.5 mi West 8.1 mph - 0.11 in Rain Rain
9:44 PM 42.8 °F 39.3 °F 39.2 °F 87% 30.07 in 3.0 mi Variable 5.8 mph - 0.14 in Rain Rain
9:56 PM 41.0 °F 35.8 °F 39.0 °F 93% 30.11 in 5.0 mi West 8.1 mph 16.1 mph 0.17 in Rain Light Rain
10:56 PM 39.9 °F 35.8 °F 37.9 °F 93% 30.12 in 10.0 mi Variable 5.8 mph - 0.08 in Rain Light Rain
11:56 PM 39.9 °F 35.1 °F 37.0 °F 89% 30.13 in 10.0 mi Variable 6.9 mph - 0.01 in Rain Light Rain